Location: Unspecified
(51.5147°N, 7.4673°E)
Time: 17:44:06
(UTC+01:00)

Vanguard 1 - Pass Details

Date: 22 February 2026
Orbit: 653 x 3818 km, 34.2° (Epoch: 5 March)

Event Time Altitude Azimuth Distance (km) Brightness Sun altitude
Rises 22:17:36 0° 270° (W) 6,822 14.9 -38.9°
Reaches altitude 10° 22:26:06 10° 248° (WSW) 6,395 14.4 -39.9°
Maximum altitude 22:33:43 13° 226° (SW) 6,457 14.2 -40.7°
Drops below altitude 10° 22:41:57 10° 205° (SSW) 6,905 14.1 -41.6°
Enters shadow 22:46:45 - 194° (SSW) 7,295 14.2 -42.1°
